STWB8K LTCW-LTBU

Flight info

Callsign STWB8K
Flight time 2h 12m
Altitude 34000
Route INLAP UT301 NARLI UG8 GEM UT32 BUK UA4 ERSEN DCT EKI
Aircraft A320/M-SDE3FGHIRWY/LB1

Departure

Time 2026-05-07 07:44
Airport Hakkari Yüksekova Airport (LTCW)

Arrival

Time 2026-05-07 09:56
Airport Tekirdağ Çorlu Airport (LTBU)
Time Latitude Longitude Altitude Speed Heading
2026-05-07 07:11 37.54631 44.25461 6095 ft 0 kts 28°
2026-05-07 07:32 37.54625 44.25457 6085 ft 2 kts 28°
2026-05-07 07:32 37.54609 44.25446 6092 ft 2 kts 28°
2026-05-07 07:33 37.54594 44.25436 6087 ft 3 kts 10°
2026-05-07 07:33 37.54576 44.25436 6083 ft 3 kts 334°
2026-05-07 07:33 37.54562 44.25450 6083 ft 2 kts 298°
2026-05-07 07:33 37.54556 44.25464 6087 ft 2 kts 299°
2026-05-07 07:34 37.54547 44.25483 6083 ft 2 kts 299°
2026-05-07 07:34 37.54539 44.25502 6083 ft 2 kts 299°
2026-05-07 07:34 37.54530 44.25521 6083 ft 3 kts 299°
2026-05-07 07:34 37.54522 44.25540 6088 ft 2 kts 299°
2026-05-07 07:35 37.54520 44.25545 6090 ft 0 kts 299°
2026-05-07 07:36 37.54522 44.25541 6088 ft 1 kts 299°
2026-05-07 07:36 37.54522 44.25534 6087 ft 0 kts 276°
2026-05-07 07:37 37.54522 44.25528 6088 ft 2 kts 266°
2026-05-07 07:37 37.54519 44.25511 6085 ft 2 kts 253°
2026-05-07 07:37 37.54517 44.25508 6095 ft 0 kts 238°
2026-05-07 07:37 37.54506 44.25499 6088 ft 5 kts 218°
2026-05-07 07:38 37.54463 44.25461 6086 ft 11 kts 208°
2026-05-07 07:38 37.54386 44.25407 6092 ft 14 kts 208°
2026-05-07 07:38 37.54334 44.25309 6096 ft 18 kts 284°
2026-05-07 07:38 37.54397 44.25117 6086 ft 30 kts 291°
2026-05-07 07:39 37.54510 44.24861 6091 ft 37 kts 309°
2026-05-07 07:39 37.54636 44.24582 6096 ft 37 kts 299°
2026-05-07 07:39 37.54759 44.24298 6086 ft 37 kts 297°
2026-05-07 07:39 37.54877 44.24008 6090 ft 37 kts 300°
2026-05-07 07:40 37.55006 44.23723 6091 ft 38 kts 298°
2026-05-07 07:40 37.55128 44.23434 6088 ft 37 kts 297°
2026-05-07 07:40 37.55248 44.23142 6088 ft 40 kts 295°
2026-05-07 07:40 37.55393 44.22816 6091 ft 45 kts 298°
2026-05-07 07:41 37.55539 44.22449 6090 ft 37 kts 300°
2026-05-07 07:41 37.55596 44.22286 6097 ft 16 kts 266°
2026-05-07 07:41 37.55613 44.22190 6094 ft 11 kts 345°
2026-05-07 07:41 37.55639 44.22247 6097 ft 9 kts 124°
2026-05-07 07:42 37.55625 44.22272 6096 ft 0 kts 117°
2026-05-07 07:42 37.55625 44.22273 6096 ft 0 kts 117°
2026-05-07 07:43 37.55519 44.22520 6087 ft 69 kts 121°
2026-05-07 07:43 37.55191 44.23296 6088 ft 129 kts 117°
2026-05-07 07:43 37.54684 44.24453 6135 ft 164 kts 125°
2026-05-07 07:44 37.54145 44.25718 6531 ft 167 kts 119°
2026-05-07 07:44 37.53594 44.27023 7155 ft 171 kts 118°
2026-05-07 07:44 37.53017 44.28375 7571 ft 182 kts 119°
2026-05-07 07:44 37.52390 44.29838 7930 ft 198 kts 119°
2026-05-07 07:45 37.51708 44.31423 8279 ft 214 kts 120°
2026-05-07 07:45 37.51033 44.33180 8584 ft 233 kts 105°
2026-05-07 07:45 37.51142 44.35240 9071 ft 246 kts 65°
2026-05-07 07:45 37.52267 44.36894 9604 ft 259 kts 34°
2026-05-07 07:46 37.53894 44.38019 10083 ft 275 kts 24°
2026-05-07 07:46 37.55716 44.38974 10511 ft 292 kts 21°
2026-05-07 07:46 37.57661 44.39968 10926 ft 310 kts 22°
2026-05-07 07:46 37.59667 44.41055 11322 ft 327 kts 21°
2026-05-07 07:47 37.61926 44.41625 11743 ft 339 kts 355°
2026-05-07 07:47 37.64205 44.40806 12178 ft 349 kts 328°
2026-05-07 07:47 37.65981 44.38712 12680 ft 354 kts 300°
2026-05-07 07:47 37.66952 44.35865 13349 ft 356 kts 285°
2026-05-07 07:48 37.67623 44.32838 14072 ft 359 kts 279°
2026-05-07 07:48 37.67710 44.29712 14746 ft 358 kts 264°
2026-05-07 07:48 37.67505 44.26571 15383 ft 361 kts 264°
2026-05-07 07:48 37.67402 44.23390 16090 ft 364 kts 269°
2026-05-07 07:49 37.67478 44.20192 16755 ft 366 kts 271°
2026-05-07 07:49 37.67634 44.16964 17410 ft 369 kts 272°
2026-05-07 07:49 37.67794 44.13726 18062 ft 371 kts 271°
2026-05-07 07:49 37.67921 44.10463 18688 ft 373 kts 270°
2026-05-07 07:50 37.68008 44.07180 19263 ft 375 kts 270°
2026-05-07 07:50 37.68064 44.03885 19842 ft 376 kts 269°
2026-05-07 07:50 37.68099 44.00572 20411 ft 378 kts 268°
2026-05-07 07:50 37.68125 43.97288 20980 ft 380 kts 268°
2026-05-07 07:51 37.68151 43.93950 21519 ft 381 kts 268°
2026-05-07 07:51 37.68183 43.90592 22048 ft 383 kts 268°
2026-05-07 07:51 37.68219 43.87219 22539 ft 386 kts 268°
2026-05-07 07:51 37.68257 43.83826 23039 ft 387 kts 268°
2026-05-07 07:52 37.68297 43.80420 23480 ft 389 kts 268°
2026-05-07 07:52 37.68347 43.76997 23906 ft 391 kts 270°
2026-05-07 07:52 37.68726 43.73568 24305 ft 397 kts 279°
2026-05-07 07:52 37.69534 43.70256 24684 ft 402 kts 284°
2026-05-07 07:53 37.70440 43.66908 25057 ft 403 kts 284°
2026-05-07 07:53 37.71341 43.63550 25461 ft 405 kts 284°
2026-05-07 07:53 37.72242 43.60172 25860 ft 406 kts 283°
2026-05-07 07:53 37.73138 43.56794 26224 ft 407 kts 283°
2026-05-07 07:54 37.74040 43.53392 26573 ft 408 kts 283°
2026-05-07 07:54 37.74944 43.49985 26892 ft 409 kts 283°
2026-05-07 07:54 37.75849 43.46568 27213 ft 411 kts 283°
2026-05-07 07:54 37.76759 43.43141 27560 ft 412 kts 283°
2026-05-07 07:55 37.77672 43.39697 27908 ft 413 kts 283°
2026-05-07 07:55 37.78584 43.36246 28237 ft 414 kts 282°
2026-05-07 07:55 37.79479 43.32838 28552 ft 415 kts 282°
2026-05-07 07:55 37.80393 43.29368 28833 ft 416 kts 282°
2026-05-07 07:56 37.81270 43.25878 29128 ft 415 kts 278°
2026-05-07 07:56 37.81766 43.22309 29441 ft 409 kts 270°
2026-05-07 07:56 37.82024 43.18728 29716 ft 410 kts 270°
2026-05-07 07:56 37.82291 43.15140 29998 ft 409 kts 270°
2026-05-07 07:57 37.82565 43.11564 30313 ft 408 kts 270°
2026-05-07 07:57 37.82838 43.07998 30590 ft 407 kts 270°
2026-05-07 07:57 37.83111 43.04443 30832 ft 406 kts 270°
2026-05-07 07:57 37.83377 43.00888 31061 ft 406 kts 270°
2026-05-07 07:58 37.83639 42.97335 31302 ft 405 kts 270°
2026-05-07 07:58 37.83900 42.93777 31565 ft 405 kts 270°
2026-05-07 07:58 37.84158 42.90274 31844 ft 404 kts 270°
2026-05-07 07:58 37.84419 42.86740 32129 ft 403 kts 270°
2026-05-07 07:59 37.84680 42.83217 32409 ft 402 kts 270°
2026-05-07 07:59 37.84942 42.79691 32708 ft 402 kts 270°
2026-05-07 07:59 37.85199 42.76172 32992 ft 401 kts 270°
2026-05-07 07:59 37.85450 42.72664 33260 ft 400 kts 270°
2026-05-07 08:00 37.85701 42.69152 33519 ft 400 kts 270°
2026-05-07 08:00 37.85948 42.65645 33806 ft 399 kts 270°
2026-05-07 08:00 37.86188 42.62147 34082 ft 398 kts 270°
2026-05-07 08:00 37.86425 42.58704 34321 ft 397 kts 270°
2026-05-07 08:01 37.86665 42.55217 34525 ft 397 kts 270°
2026-05-07 08:01 37.86905 42.51734 34711 ft 398 kts 270°
2026-05-07 08:01 37.87143 42.48261 35046 ft 394 kts 270°
2026-05-07 08:01 37.87380 42.44824 35405 ft 390 kts 270°
2026-05-07 08:02 37.87615 42.41414 35710 ft 387 kts 270°
2026-05-07 08:02 37.87845 42.38023 35953 ft 386 kts 270°
2026-05-07 08:02 37.88074 42.34626 36100 ft 388 kts 270°
2026-05-07 08:03 37.88523 42.27731 36137 ft 398 kts 270°
2026-05-07 08:03 37.88977 42.20684 36134 ft 405 kts 270°
2026-05-07 08:04 37.89449 42.13582 36133 ft 405 kts 270°
2026-05-07 08:04 37.89915 42.06470 36130 ft 405 kts 270°
2026-05-07 08:05 37.90372 41.99350 36124 ft 405 kts 270°
2026-05-07 08:05 37.90817 41.92278 36133 ft 406 kts 270°
2026-05-07 08:06 37.91974 41.85248 36126 ft 416 kts 286°
2026-05-07 08:06 37.94119 41.78414 36128 ft 419 kts 286°
2026-05-07 08:07 37.96276 41.71483 36131 ft 425 kts 286°
2026-05-07 08:07 37.98091 41.65658 36130 ft 429 kts 286°
2026-05-07 08:08 38.00281 41.58588 36130 ft 429 kts 286°
2026-05-07 08:08 38.02447 41.51592 36132 ft 426 kts 286°
2026-05-07 08:09 38.04607 41.44590 36131 ft 426 kts 286°
2026-05-07 08:09 38.06768 41.37577 36142 ft 426 kts 286°
2026-05-07 08:10 38.08908 41.30610 36146 ft 426 kts 286°
2026-05-07 08:10 38.11059 41.23592 36147 ft 427 kts 286°
2026-05-07 08:11 38.13213 41.16565 36150 ft 427 kts 286°
2026-05-07 08:11 38.15368 41.09537 36149 ft 427 kts 287°
2026-05-07 08:12 38.17563 41.02513 36149 ft 428 kts 287°
2026-05-07 08:12 38.19766 40.95479 36149 ft 428 kts 287°
2026-05-07 08:13 38.21964 40.88439 36148 ft 428 kts 287°
2026-05-07 08:13 38.24128 40.81426 36150 ft 429 kts 287°
2026-05-07 08:14 38.26278 40.74343 36148 ft 429 kts 286°
2026-05-07 08:14 38.28394 40.67241 36147 ft 429 kts 286°
2026-05-07 08:15 38.30509 40.60133 36147 ft 429 kts 286°
2026-05-07 08:15 38.32632 40.53016 36146 ft 430 kts 287°
2026-05-07 08:16 38.34759 40.45887 36145 ft 430 kts 287°
2026-05-07 08:16 38.36888 40.38754 36144 ft 431 kts 287°
2026-05-07 08:17 38.39003 40.31605 36148 ft 431 kts 287°
2026-05-07 08:17 38.41106 40.24500 36145 ft 431 kts 287°
2026-05-07 08:18 38.43220 40.17342 36154 ft 432 kts 287°
2026-05-07 08:18 38.45329 40.10161 36160 ft 432 kts 287°
2026-05-07 08:19 38.47426 40.02964 36160 ft 432 kts 287°
2026-05-07 08:19 38.49527 39.95775 36162 ft 432 kts 287°
2026-05-07 08:20 38.51635 39.88570 36167 ft 433 kts 287°
2026-05-07 08:20 38.53726 39.81405 36164 ft 433 kts 287°
2026-05-07 08:21 38.55818 39.74197 36170 ft 433 kts 287°
2026-05-07 08:21 38.57899 39.66963 36172 ft 433 kts 287°
2026-05-07 08:22 38.59985 39.59727 36172 ft 433 kts 287°
2026-05-07 08:22 38.62059 39.52492 36175 ft 434 kts 287°
2026-05-07 08:23 38.64155 39.45249 36181 ft 434 kts 287°
2026-05-07 08:23 38.66280 39.38018 36190 ft 434 kts 288°
2026-05-07 08:24 38.68405 39.30775 36178 ft 435 kts 288°
2026-05-07 08:24 38.70489 39.23562 36180 ft 434 kts 285°
2026-05-07 08:25 38.71777 39.16049 36176 ft 432 kts 278°
2026-05-07 08:25 38.72903 39.08473 36178 ft 433 kts 279°
2026-05-07 08:26 38.74603 38.97102 36178 ft 433 kts 279°
2026-05-07 08:26 38.75725 38.89512 36178 ft 434 kts 279°
2026-05-07 08:27 38.76861 38.81911 36178 ft 434 kts 279°
2026-05-07 08:27 38.77999 38.74358 36180 ft 435 kts 279°
2026-05-07 08:28 38.79144 38.66735 36182 ft 435 kts 279°
2026-05-07 08:28 38.80281 38.59111 36180 ft 436 kts 279°
2026-05-07 08:29 38.81412 38.51481 36183 ft 436 kts 279°
2026-05-07 08:29 38.82546 38.43843 36179 ft 436 kts 279°
2026-05-07 08:30 38.83678 38.36199 36181 ft 436 kts 279°
2026-05-07 08:30 38.84797 38.28536 36161 ft 438 kts 279°
2026-05-07 08:31 38.85919 38.20798 36133 ft 443 kts 279°
2026-05-07 08:31 38.87037 38.13017 36161 ft 443 kts 279°
2026-05-07 08:32 38.88151 38.05234 36173 ft 444 kts 279°
2026-05-07 08:32 38.89270 37.97491 36176 ft 444 kts 279°
2026-05-07 08:33 38.90383 37.89689 36181 ft 444 kts 279°
2026-05-07 08:33 38.91488 37.81876 36181 ft 444 kts 279°
2026-05-07 08:34 38.92590 37.74065 36186 ft 445 kts 279°
2026-05-07 08:34 38.93685 37.66240 36189 ft 445 kts 279°
2026-05-07 08:35 38.94782 37.58415 36186 ft 445 kts 280°
2026-05-07 08:35 38.95883 37.50578 36189 ft 445 kts 280°
2026-05-07 08:36 38.96966 37.42745 36191 ft 446 kts 279°
2026-05-07 08:36 38.98038 37.34894 36190 ft 446 kts 280°
2026-05-07 08:37 38.99113 37.27042 36194 ft 446 kts 280°
2026-05-07 08:37 39.00180 37.19242 36199 ft 446 kts 280°
2026-05-07 08:38 39.01245 37.11385 36200 ft 446 kts 280°
2026-05-07 08:38 39.02309 37.03532 36203 ft 446 kts 280°
2026-05-07 08:39 39.03363 36.95671 36205 ft 446 kts 280°
2026-05-07 08:39 39.04403 36.87800 36208 ft 446 kts 280°
2026-05-07 08:40 39.05445 36.79938 36206 ft 446 kts 280°
2026-05-07 08:40 39.06495 36.72069 36209 ft 446 kts 280°
2026-05-07 08:41 39.07532 36.64201 36210 ft 446 kts 280°
2026-05-07 08:41 39.08554 36.56335 36210 ft 446 kts 280°
2026-05-07 08:42 39.09571 36.48463 36208 ft 446 kts 280°
2026-05-07 08:42 39.10584 36.40591 36208 ft 446 kts 280°
2026-05-07 08:43 39.11588 36.32767 36208 ft 445 kts 280°
2026-05-07 08:43 39.12591 36.24899 36207 ft 445 kts 280°
2026-05-07 08:44 39.13602 36.17013 36210 ft 445 kts 281°
2026-05-07 08:44 39.14592 36.09137 36211 ft 445 kts 280°
2026-05-07 08:45 39.15997 36.01407 36203 ft 443 kts 293°
2026-05-07 08:45 39.18733 35.94294 36207 ft 443 kts 297°
2026-05-07 08:46 39.21488 35.87242 36237 ft 437 kts 297°
2026-05-07 08:46 39.24186 35.80268 36224 ft 437 kts 297°
2026-05-07 08:47 39.26892 35.73239 36222 ft 437 kts 297°
2026-05-07 08:47 39.29602 35.66225 36219 ft 436 kts 297°
2026-05-07 08:48 39.32314 35.59216 36218 ft 436 kts 297°
2026-05-07 08:48 39.35032 35.52171 36163 ft 441 kts 297°
2026-05-07 08:49 39.37759 35.45043 36187 ft 442 kts 297°
2026-05-07 08:49 39.40467 35.37967 36202 ft 442 kts 297°
2026-05-07 08:50 39.43189 35.30840 36208 ft 442 kts 297°
2026-05-07 08:50 39.45909 35.23706 36206 ft 442 kts 297°
2026-05-07 08:51 39.48621 35.16568 36215 ft 442 kts 297°
2026-05-07 08:51 39.51328 35.09435 36211 ft 441 kts 297°
2026-05-07 08:52 39.54026 35.02298 36210 ft 441 kts 297°
2026-05-07 08:52 39.56715 34.95156 36210 ft 441 kts 297°
2026-05-07 08:53 39.59402 34.88010 36216 ft 440 kts 297°
2026-05-07 08:53 39.62068 34.80915 36213 ft 440 kts 298°
2026-05-07 08:54 39.64746 34.73786 36210 ft 439 kts 298°
2026-05-07 08:54 39.67410 34.66652 36212 ft 439 kts 298°
2026-05-07 08:55 39.70074 34.59515 36214 ft 438 kts 298°
2026-05-07 08:55 39.72282 34.53598 36213 ft 438 kts 298°
2026-05-07 08:56 39.74928 34.46478 36213 ft 437 kts 298°
2026-05-07 08:56 39.77567 34.39343 36213 ft 437 kts 298°
2026-05-07 08:57 39.80192 34.32225 36214 ft 436 kts 298°
2026-05-07 08:57 39.82806 34.25155 36214 ft 436 kts 298°
2026-05-07 08:58 39.85422 34.18034 36211 ft 436 kts 298°
2026-05-07 08:58 39.88031 34.10907 36208 ft 436 kts 298°
2026-05-07 08:59 39.90636 34.03778 36207 ft 436 kts 298°
2026-05-07 08:59 39.93240 33.96649 36208 ft 435 kts 298°
2026-05-07 09:00 39.95820 33.89561 36208 ft 435 kts 298°
2026-05-07 09:00 39.98414 33.82422 36204 ft 436 kts 298°
2026-05-07 09:01 40.01006 33.75273 36204 ft 436 kts 298°
2026-05-07 09:01 40.03594 33.68112 36204 ft 436 kts 298°
2026-05-07 09:02 40.06178 33.60957 36209 ft 436 kts 298°
2026-05-07 09:02 40.08757 33.53780 36211 ft 436 kts 298°
2026-05-07 09:03 40.11333 33.46608 36209 ft 436 kts 298°
2026-05-07 09:03 40.13907 33.39419 36206 ft 436 kts 297°
2026-05-07 09:04 40.16454 33.32269 36212 ft 436 kts 297°
2026-05-07 09:04 40.19022 33.25072 36219 ft 437 kts 297°
2026-05-07 09:05 40.21583 33.17867 36223 ft 437 kts 297°
2026-05-07 09:05 40.24124 33.10631 36223 ft 437 kts 294°
2026-05-07 09:06 40.26122 33.03087 36221 ft 439 kts 291°
2026-05-07 09:06 40.28089 32.95523 36222 ft 438 kts 291°
2026-05-07 09:07 40.30033 32.88000 36221 ft 439 kts 291°
2026-05-07 09:07 40.31986 32.80432 36221 ft 438 kts 291°
2026-05-07 09:08 40.33942 32.72868 36215 ft 438 kts 291°
2026-05-07 09:08 40.35882 32.65310 36212 ft 437 kts 291°
2026-05-07 09:09 40.37815 32.57750 36207 ft 437 kts 291°
2026-05-07 09:09 40.39743 32.50183 36204 ft 437 kts 291°
2026-05-07 09:10 40.41667 32.42632 36208 ft 436 kts 291°
2026-05-07 09:10 40.43583 32.35082 36194 ft 436 kts 291°
2026-05-07 09:11 40.45487 32.27517 36196 ft 435 kts 291°
2026-05-07 09:11 40.47380 32.19963 36191 ft 435 kts 292°
2026-05-07 09:12 40.49446 32.12571 36197 ft 433 kts 295°
2026-05-07 09:12 40.51700 32.05238 36195 ft 432 kts 295°
2026-05-07 09:13 40.53938 31.97904 36192 ft 432 kts 295°
2026-05-07 09:13 40.56116 31.90533 36190 ft 432 kts 294°
2026-05-07 09:14 40.58267 31.83142 36189 ft 432 kts 294°
2026-05-07 09:14 40.60238 31.75661 36184 ft 433 kts 291°
2026-05-07 09:15 40.62032 31.68125 36183 ft 434 kts 291°
2026-05-07 09:15 40.63844 31.60553 36182 ft 433 kts 291°
2026-05-07 09:16 40.65700 31.52996 36180 ft 433 kts 291°
2026-05-07 09:16 40.67564 31.45466 36181 ft 432 kts 291°
2026-05-07 09:17 40.69407 31.37929 36174 ft 432 kts 291°
2026-05-07 09:17 40.71228 31.30437 36174 ft 432 kts 291°
2026-05-07 09:18 40.73066 31.22898 36176 ft 431 kts 291°
2026-05-07 09:18 40.74895 31.15375 36180 ft 431 kts 291°
2026-05-07 09:19 40.76707 31.07845 36056 ft 428 kts 291°
2026-05-07 09:19 40.77592 31.04148 35933 ft 415 kts 291°
2026-05-07 09:19 40.78449 31.00565 35692 ft 402 kts 291°
2026-05-07 09:20 40.79280 30.97097 35440 ft 391 kts 291°
2026-05-07 09:20 40.80088 30.93725 35200 ft 380 kts 292°
2026-05-07 09:20 40.80876 30.90440 34957 ft 371 kts 292°
2026-05-07 09:20 40.81644 30.87242 34714 ft 360 kts 292°
2026-05-07 09:21 40.82390 30.84119 34474 ft 353 kts 292°
2026-05-07 09:21 40.83125 30.81027 34163 ft 353 kts 292°
2026-05-07 09:21 40.83863 30.77937 33806 ft 353 kts 293°
2026-05-07 09:21 40.84602 30.74839 33453 ft 354 kts 292°
2026-05-07 09:22 40.85340 30.71735 33105 ft 355 kts 292°
2026-05-07 09:22 40.86076 30.68620 32760 ft 355 kts 291°
2026-05-07 09:22 40.86580 30.65442 32420 ft 362 kts 282°
2026-05-07 09:22 40.86736 30.62101 32083 ft 365 kts 279°
2026-05-07 09:23 40.86862 30.58751 31754 ft 365 kts 279°
2026-05-07 09:23 40.86997 30.55398 31424 ft 366 kts 279°
2026-05-07 09:23 40.87132 30.52026 31052 ft 376 kts 279°
2026-05-07 09:23 40.87281 30.48493 30713 ft 391 kts 278°
2026-05-07 09:24 40.87430 30.44864 30100 ft 397 kts 278°
2026-05-07 09:24 40.87570 30.41217 29321 ft 397 kts 278°
2026-05-07 09:24 40.87703 30.37582 28581 ft 395 kts 278°
2026-05-07 09:24 40.87835 30.33962 27903 ft 393 kts 278°
2026-05-07 09:25 40.87966 30.30370 27241 ft 391 kts 278°
2026-05-07 09:25 40.88095 30.26793 26600 ft 388 kts 278°
2026-05-07 09:25 40.88222 30.23240 25971 ft 386 kts 278°
2026-05-07 09:25 40.88351 30.19694 25376 ft 385 kts 277°
2026-05-07 09:26 40.88482 30.16156 24809 ft 385 kts 277°
2026-05-07 09:26 40.88609 30.12622 24247 ft 383 kts 277°
2026-05-07 09:26 40.88731 30.09112 23692 ft 382 kts 277°
2026-05-07 09:26 40.88852 30.05648 23045 ft 381 kts 277°
2026-05-07 09:27 40.88974 30.02152 22404 ft 381 kts 277°
2026-05-07 09:27 40.89095 29.98659 21775 ft 380 kts 277°
2026-05-07 09:27 40.89330 29.91698 20560 ft 378 kts 276°
2026-05-07 09:28 40.89447 29.88249 20212 ft 370 kts 276°
2026-05-07 09:28 40.89557 29.84896 20123 ft 363 kts 276°
2026-05-07 09:28 40.89668 29.81554 20145 ft 364 kts 276°
2026-05-07 09:28 40.89785 29.78135 20147 ft 383 kts 276°
2026-05-07 09:29 40.89913 29.74521 20147 ft 402 kts 276°
2026-05-07 09:29 40.90041 29.70797 20146 ft 407 kts 276°
2026-05-07 09:29 40.90160 29.67062 20147 ft 407 kts 276°
2026-05-07 09:29 40.90272 29.63326 20144 ft 407 kts 276°
2026-05-07 09:30 40.90382 29.59589 20143 ft 407 kts 276°
2026-05-07 09:30 40.90494 29.55849 20140 ft 407 kts 276°
2026-05-07 09:30 40.90609 29.52108 20138 ft 407 kts 276°
2026-05-07 09:30 40.90724 29.48373 20138 ft 407 kts 276°
2026-05-07 09:31 40.90838 29.44632 20138 ft 407 kts 276°
2026-05-07 09:31 40.90948 29.40893 20139 ft 407 kts 276°
2026-05-07 09:31 40.91055 29.37205 20137 ft 407 kts 276°
2026-05-07 09:31 40.91163 29.33465 20135 ft 407 kts 276°
2026-05-07 09:32 40.91272 29.29724 20130 ft 407 kts 276°
2026-05-07 09:32 40.91382 29.25983 20129 ft 407 kts 276°
2026-05-07 09:32 40.91488 29.22237 20130 ft 407 kts 276°
2026-05-07 09:32 40.91593 29.18499 20130 ft 407 kts 276°
2026-05-07 09:33 40.91697 29.14749 20131 ft 407 kts 276°
2026-05-07 09:33 40.91800 29.11007 20132 ft 408 kts 276°
2026-05-07 09:33 40.91899 29.07256 20134 ft 407 kts 276°
2026-05-07 09:33 40.91996 29.03516 20132 ft 408 kts 275°
2026-05-07 09:34 40.92091 28.99767 20130 ft 408 kts 275°
2026-05-07 09:34 40.92187 28.96013 20132 ft 408 kts 275°
2026-05-07 09:34 40.92284 28.92264 20134 ft 408 kts 275°
2026-05-07 09:34 40.92381 28.88514 20135 ft 408 kts 275°
2026-05-07 09:35 40.92473 28.84767 20138 ft 408 kts 275°
2026-05-07 09:35 40.92562 28.81012 20135 ft 408 kts 275°
2026-05-07 09:35 40.92645 28.77388 20134 ft 389 kts 275°
2026-05-07 09:35 40.92725 28.73893 20136 ft 370 kts 275°
2026-05-07 09:36 40.92802 28.70565 20047 ft 355 kts 276°
2026-05-07 09:36 40.92877 28.67362 19930 ft 341 kts 276°
2026-05-07 09:36 40.92947 28.64285 19793 ft 329 kts 276°
2026-05-07 09:36 40.93014 28.61288 19495 ft 324 kts 276°
2026-05-07 09:37 40.93082 28.58317 19205 ft 323 kts 276°
2026-05-07 09:37 40.93153 28.55347 18964 ft 323 kts 276°
2026-05-07 09:37 40.93222 28.52369 18733 ft 323 kts 275°
2026-05-07 09:37 40.93290 28.49404 18502 ft 322 kts 275°
2026-05-07 09:38 40.93354 28.46448 18245 ft 322 kts 275°
2026-05-07 09:38 40.93417 28.43498 17981 ft 320 kts 275°
2026-05-07 09:38 40.93477 28.40565 17603 ft 318 kts 275°
2026-05-07 09:38 40.93536 28.37646 17182 ft 316 kts 275°
2026-05-07 09:39 40.93594 28.34745 16776 ft 314 kts 275°
2026-05-07 09:39 40.93650 28.31901 16388 ft 313 kts 274°
2026-05-07 09:39 40.93708 28.29031 16006 ft 311 kts 274°
2026-05-07 09:39 40.93764 28.26179 15629 ft 309 kts 274°
2026-05-07 09:40 40.93819 28.23343 15253 ft 308 kts 274°
2026-05-07 09:40 40.93873 28.20521 14888 ft 306 kts 274°
2026-05-07 09:40 40.93928 28.17708 14528 ft 305 kts 274°
2026-05-07 09:40 40.93982 28.14915 14171 ft 303 kts 274°
2026-05-07 09:41 40.94033 28.12127 13806 ft 302 kts 274°
2026-05-07 09:41 40.94083 28.09358 13416 ft 300 kts 274°
2026-05-07 09:41 40.94132 28.06610 13040 ft 298 kts 274°
2026-05-07 09:41 40.94181 28.03879 12659 ft 296 kts 273°
2026-05-07 09:42 40.94230 28.01166 12276 ft 294 kts 274°
2026-05-07 09:42 40.94279 27.98465 11900 ft 292 kts 273°
2026-05-07 09:42 40.94323 27.95785 11524 ft 290 kts 273°
2026-05-07 09:42 40.94367 27.93118 11147 ft 289 kts 273°
2026-05-07 09:43 40.94411 27.90469 10779 ft 287 kts 273°
2026-05-07 09:43 40.94440 27.88728 10528 ft 286 kts 273°
2026-05-07 09:43 40.94481 27.86112 10152 ft 284 kts 273°
2026-05-07 09:43 40.94537 27.82672 9613 ft 281 kts 273°
2026-05-07 09:44 40.94581 27.80093 9216 ft 279 kts 272°
2026-05-07 09:44 40.94622 27.77535 8785 ft 277 kts 272°
2026-05-07 09:44 40.94650 27.75813 8514 ft 276 kts 272°
2026-05-07 09:44 40.94688 27.73283 8098 ft 274 kts 272°
2026-05-07 09:45 40.94724 27.70770 7678 ft 272 kts 272°
2026-05-07 09:45 40.94759 27.68306 7259 ft 271 kts 272°
2026-05-07 09:45 40.94795 27.65824 6896 ft 267 kts 272°
2026-05-07 09:45 40.94828 27.63428 6773 ft 253 kts 272°
2026-05-07 09:46 40.94859 27.61158 6622 ft 242 kts 272°
2026-05-07 09:46 40.94889 27.58969 6345 ft 236 kts 272°
2026-05-07 09:46 40.94920 27.56813 5992 ft 233 kts 272°
2026-05-07 09:46 40.94950 27.54660 5508 ft 237 kts 271°
2026-05-07 09:47 40.94979 27.52463 4993 ft 241 kts 271°
2026-05-07 09:47 40.95008 27.50220 4445 ft 245 kts 271°
2026-05-07 09:47 40.95094 27.47975 4080 ft 244 kts 282°
2026-05-07 09:47 40.95834 27.46005 3736 ft 241 kts 311°
2026-05-07 09:48 40.97244 27.44816 3275 ft 246 kts 341°
2026-05-07 09:48 40.98962 27.44787 3005 ft 257 kts 13°
2026-05-07 09:48 41.00510 27.45854 2985 ft 244 kts 33°
2026-05-07 09:48 41.01848 27.47197 2993 ft 242 kts 36°
2026-05-07 09:49 41.03153 27.48551 2990 ft 241 kts 36°
2026-05-07 09:49 41.04467 27.49930 2995 ft 241 kts 36°
2026-05-07 09:49 41.05716 27.51191 3012 ft 240 kts 35°
2026-05-07 09:49 41.06931 27.52705 2991 ft 241 kts 56°
2026-05-07 09:50 41.07480 27.54795 2999 ft 244 kts 84°
2026-05-07 09:50 41.07333 27.57022 3003 ft 244 kts 105°
2026-05-07 09:50 41.06824 27.59174 2985 ft 244 kts 110°
2026-05-07 09:50 41.06260 27.61242 3007 ft 232 kts 111°
2026-05-07 09:51 41.05729 27.63191 3004 ft 218 kts 111°
2026-05-07 09:51 41.05235 27.64997 3036 ft 197 kts 111°
2026-05-07 09:51 41.04803 27.66657 3008 ft 184 kts 108°
2026-05-07 09:51 41.04447 27.68226 3002 ft 171 kts 107°
2026-05-07 09:52 41.04132 27.69669 3001 ft 162 kts 107°
2026-05-07 09:52 41.03801 27.71195 3001 ft 174 kts 107°
2026-05-07 09:52 41.03463 27.72750 3009 ft 190 kts 107°
2026-05-07 09:52 41.03271 27.74520 3008 ft 196 kts 85°
2026-05-07 09:53 41.03639 27.76233 3008 ft 193 kts 58°
2026-05-07 09:53 41.04459 27.77624 2954 ft 192 kts 45°
2026-05-07 09:53 41.05334 27.78951 2771 ft 191 kts 45°
2026-05-07 09:53 41.06201 27.80269 2540 ft 188 kts 46°
2026-05-07 09:54 41.07047 27.81557 2315 ft 181 kts 46°
2026-05-07 09:54 41.07842 27.82769 2090 ft 167 kts 47°
2026-05-07 09:54 41.08571 27.83879 1868 ft 154 kts 48°
2026-05-07 09:54 41.09253 27.84918 1669 ft 145 kts 48°
2026-05-07 09:55 41.09920 27.85933 1474 ft 145 kts 49°
2026-05-07 09:55 41.10581 27.86944 1263 ft 145 kts 51°
2026-05-07 09:55 41.11245 27.87931 1058 ft 145 kts 50°
2026-05-07 09:55 41.11906 27.88932 874 ft 144 kts 51°
2026-05-07 09:56 41.12561 27.89946 671 ft 144 kts 51°
2026-05-07 09:56 41.13204 27.90943 529 ft 138 kts 50°
2026-05-07 09:56 41.13704 27.91724 536 ft 70 kts 53°
2026-05-07 09:56 41.13829 27.91917 539 ft 3 kts 357°
2026-05-07 09:57 41.13830 27.91908 539 ft 1 kts 279°
2026-05-07 09:57 41.13789 27.91834 537 ft 21 kts 235°
2026-05-07 09:57 41.13693 27.91661 535 ft 25 kts 231°
2026-05-07 09:57 41.13562 27.91481 532 ft 31 kts 225°
2026-05-07 09:58 41.13385 27.91232 529 ft 38 kts 229°
2026-05-07 09:58 41.13215 27.90968 527 ft 38 kts 230°
2026-05-07 09:58 41.13059 27.90724 525 ft 35 kts 229°
2026-05-07 09:58 41.12946 27.90603 525 ft 16 kts 175°
2026-05-07 09:59 41.12852 27.90667 524 ft 15 kts 141°
2026-05-07 09:59 41.12776 27.90750 525 ft 11 kts 136°
2026-05-07 09:59 41.12741 27.90792 525 ft 3 kts 137°
2026-05-07 09:59 41.12733 27.90801 525 ft 0 kts 137°